Flag for Germany Weather past 2 weeks in Norderstedt, Schleswig-Holstein, Germany

50 °F

Passing clouds.

Feels Like: 48 °F
Forecast: 40 / 49 °F
Wind: 5 mph from Southeast

Location: Hamburg-Fuhlsbuettel

Current Time: Oct 9, 2015 at 3:54:40 AM

Latest Report: Oct 9, 2015 at 3:20 AM

Visibility: 6 mi

Pressure: 30.15 "Hg

Humidity: 100%

Dew point: 50 °F

Location of NorderstedtLocation

Historic Weather in Norderstedt — Graph


Norderstedt temperature yesterday

Maximum temperature yesterday: 59 °F (at 12:20 PM)
Minimum temperature yesterday: 52 °F (at 11:20 PM)
Average temperature yesterday: 56 °F

Past Weeks' High & Low Weather Summary

High66 °F (Oct 3, 3:20 PM)100% (Sep 24, 6:20 AM)30.72 "Hg (Sep 24, 6:20 AM)
Low37 °F (Sep 29, 5:20 AM)49% (Oct 3, 3:20 PM)29.71 "Hg (Oct 6, 11:50 AM)
Average53 °F86%30.22 "Hg
* Reported Sep 24 2:20 AM — Oct 9 2:20 AM, Norderstedt, Weather by CustomWeather, © 2015

Note: Actual official high and low records may vary slightly from our data, if they occured in-between our weather recording intervals... More about our weather records


Norderstedt weather history for previous 24 hours

Time TempWeatherWind HumidityBarometerVisibility
2:20 AM
Fri, Oct 9
50 °FPassing clouds.6 mph100%30.15 "Hg5 mi
1:50 AM50 °FPassing clouds.6 mph100%30.15 "Hg4 mi
1:20 AM50 °FCool.8 mph100%30.15 "HgN/A
12:50 AM52 °FPassing clouds.7 mph94%30.15 "Hg4 mi
12:20 AM52 °FPassing clouds.8 mph94%30.15 "Hg4 mi
11:50 PM
Thu, Oct 8
52 °FPassing clouds.7 mph100%30.15 "Hg4 mi
11:20 PM52 °FPassing clouds.7 mph100%30.15 "Hg4 mi
10:50 PM54 °FPassing clouds.6 mph94%30.12 "Hg4 mi
10:20 PM54 °FDrizzle. Fog.6 mph94%30.12 "Hg3 mi
9:50 PM54 °FDrizzle. Fog.6 mph100%30.12 "Hg3 mi
9:20 PM54 °FPassing clouds.7 mph100%30.12 "Hg3 mi
8:50 PM54 °FPassing clouds.5 mph100%30.12 "Hg3 mi
8:20 PM55 °FPassing clouds.5 mph94%30.12 "Hg4 mi
7:50 PM55 °FPassing clouds.6 mph94%30.12 "Hg4 mi
7:20 PM55 °FPartly sunny.6 mph100%30.09 "Hg4 mi
6:50 PM55 °FFog.6 mph100%30.09 "Hg3 mi
6:20 PM57 °FDrizzle. Fog.6 mph94%30.09 "Hg2 mi
5:50 PM57 °FDrizzle. Fog.3 mph94%30.09 "Hg2 mi
5:20 PM57 °FDrizzle. Fog.3 mph94%30.09 "Hg2 mi
4:50 PM57 °FDrizzle. Fog.6 mph94%30.09 "Hg2 mi
4:20 PM57 °FDrizzle. Fog.6 mph94%30.09 "Hg2 mi
3:50 PM57 °FFog.6 mph94%30.07 "Hg3 mi
3:20 PM57 °FDrizzle. Fog.5 mph94%30.07 "Hg3 mi
2:50 PM57 °FFog.6 mph94%30.07 "Hg3 mi
2:20 PM55 °FDrizzle. Fog.7 mph100%30.07 "Hg2 mi
1:50 PM57 °FDrizzle. Fog.6 mph94%30.07 "Hg2 mi
1:20 PM57 °FFog.6 mph94%30.07 "Hg2 mi
12:50 PM59 °FFog.5 mph94%30.07 "Hg2 mi
12:20 PM59 °FFog.2 mph94%30.07 "Hg3 mi
11:50 AM57 °FFog.3 mph100%30.07 "Hg3 mi
11:20 AM57 °FFog.6 mph100%30.04 "Hg2 mi
10:50 AM57 °FFog.6 mph100%30.04 "Hg2 mi
10:20 AM57 °FFog.2 mph100%30.04 "Hg2 mi
9:50 AM57 °FFog.3 mph94%30.04 "Hg2 mi
9:20 AM57 °FFog.5 mph94%30.04 "Hg2 mi
8:50 AM57 °FDrizzle. Fog.5 mph94%30.01 "Hg2 mi
8:20 AM57 °FFog.3 mph94%30.01 "Hg2 mi
7:50 AM57 °FFog.5 mph94%30.01 "Hg2 mi
7:20 AM57 °FFog.5 mph94%29.98 "Hg2 mi
6:50 AM55 °FFog.5 mph100%29.98 "Hg2 mi
5:20 AM55 °FFog.5 mph100%29.98 "Hg1 mi
4:50 AM55 °FFog.5 mph100%29.98 "Hg2 mi
4:20 AM55 °FFog.5 mph100%29.98 "Hg2 mi
3:50 AM55 °FFog.6 mph100%29.98 "Hg3 mi
3:20 AM55 °FFog.6 mph100%29.98 "Hg3 mi
Weather by CustomWeather, © 2015

See weather overviewHow to use our weather pages